sat.trackr.live / text

‹ back to catalog

ONEWEB-0361

NORAD 49287 · 2021-090J

PAYLOAD ACTIVE UNKNOWN

§ Identity

Operator
Country
UK
Launch date
2021-10-14
Launch site
VOSTO
Launch vehicle
Mass (kg)
RCS (m²)

Purposes: comms

External: N2YO · Heavens-Above · Gunter

§ Orbital elements

Epoch: 2026-05-25T02:51:01.823904Z

Period
109.03 min
Inclination
87.9176°
Eccentricity
0.0002000
Mean motion
13.20773845 rev/d
Perigee alt
1,180.3 km
Apogee alt
1,183.3 km
Semi-major
7,559.9 km
B*
1.2266e-4
RAAN
279.0380°
Arg perigee
102.0201°
Mean anomaly
258.1156°
Rev number
22,725

§ Raw data

ONEWEB-03611 49287U 21090J   26145.11877111  .00000063  00000+0  12266-3 0  99952 49287  87.9176 279.0380 0002000 102.0201 258.1156 13.20773845227253

JSON: /api/v1/satellites/49287 · /tle

For live sub-satellite position, see the globe view (requires WebGL).

§ Visibility from observer

Set your observer location to see the next 7 days of passes ≥ 10°. The values pass through the URL so the page stays shareable.

No JS? Fill the form by hand. The geolocation button needs JavaScript.